Kayseri, Turkey

12:11 PM +03 on May 25, 2017 (GMT +0300)
Erkilet Air Base

Weather History for LTAU - November, 2012

Change the Weather History Date:

Saturday, November 3, 2012

  Actual Average Record
Temperature  
Mean Temperature 52 °F -  
Max Temperature 66 °F 52 °F 68 °F (2004)
Min Temperature 39 °F 28 °F 19 °F (2016)
Degree Days  
Heating Degree Days 12    
Growing Degree Days 2 (Base 50)    
Moisture  
Dew Point 43 °F    
Average Humidity 75    
Maximum Humidity 93    
Minimum Humidity 43    
Precipitation  
Precipitation 0.00 in - - ()
Sea Level Pressure  
Sea Level Pressure 30.12 in    
Wind  
Wind Speed 2 mph ()    
Max Wind Speed 7 mph    
Max Gust Speed -    
Visibility 6.6 miles    
Events      
Averages and records for this station are not official NWS values.
T = Trace of Precipitation, MM = Missing Value Source: Averaged Metar Reports

Daily Weather History Graph

Daily Weather History Graph

Search for Another Location

Airport or City:

Trip Planner

Search our weather history database for the weather conditions in past years. The results will help you decide how hot, cold, wet, or windy it might be!

Date:

Astronomy

Nov. 03, 2012 Rise Set
Actual Time 6:07 AM EET 4:35 PM EET
Civil Twilight 5:39 AM EET 5:03 PM EET
Nautical Twilight 5:08 AM EET 5:34 PM EET
Astronomical Twilight 4:37 AM EET 6:05 PM EET
Moon 7:58 PM EET (11/3) 9:56 AM EET (11/3)
Length of Visible Light 11h 23m
Length of Day
10h 27m
Waning Gibbous, 82% of the Moon is Illuminated
Nov 3
Waning Gibbous
Nov 7
Last Quarter
Nov 14
New
Nov 20
First Quarter
Nov 28
Full

Hourly Weather History & Observations

Time (EET) Temp. Windchill Dew Point Humidity Pressure Visibility Wind Dir Wind Speed Gust Speed Precip Events Conditions
12:20 AM 46.4 °F - 41.0 °F 81% 30.09 in 6.2 mi NE 1.2 mph - N/A   Partly Cloudy
12:50 AM 44.6 °F 43.1 °F 41.0 °F 87% 30.09 in 6.2 mi NNE 3.5 mph - N/A   Partly Cloudy
1:20 AM 42.8 °F 40.1 °F 41.0 °F 93% 30.06 in 6.2 mi NE 4.6 mph - N/A   Partly Cloudy
1:50 AM 41.0 °F 38.0 °F 37.4 °F 87% 30.09 in 6.2 mi NE 4.6 mph - N/A   Partly Cloudy
2:00 AM 41 °F - 38 °F 86%  in 12 mi NE 4.6 mph - -   Scattered Clouds
2:20 AM 41.0 °F - 39.2 °F 93% 30.09 in 6.2 mi Calm Calm - N/A   Partly Cloudy
2:50 AM 42.8 °F - 39.2 °F 87% 30.09 in 6.2 mi NE 1.2 mph - N/A   Partly Cloudy
3:20 AM 42.8 °F - 39.2 °F 87% 30.09 in 6.2 mi Calm Calm - N/A   Partly Cloudy
3:50 AM 41.0 °F - 39.2 °F 93% 30.09 in 6.2 mi ENE 1.2 mph - N/A   Partly Cloudy
4:20 AM 41.0 °F - 39.2 °F 93% 30.09 in 6.2 mi Calm Calm - N/A   Partly Cloudy
4:50 AM 39.2 °F - 37.4 °F 93% 30.09 in 6.2 mi NE 2.3 mph - N/A   Scattered Clouds
5:20 AM 41.0 °F - 39.2 °F 93% 30.09 in 6.2 mi NNE 1.2 mph - N/A   Mostly Cloudy
5:50 AM 46.4 °F 44.3 °F 42.8 °F 87% 30.09 in 6.2 mi North 4.6 mph - N/A   Mostly Cloudy
6:20 AM 44.6 °F - 41.0 °F 87% 30.09 in 6.2 mi NE 2.3 mph - N/A   Mostly Cloudy
6:50 AM 46.4 °F - 41.0 °F 81% 30.09 in 6.2 mi Calm Calm - N/A   Mostly Cloudy
7:20 AM 48.2 °F - 42.8 °F 82% 30.12 in 6.2 mi Calm Calm - N/A   Mostly Cloudy
7:50 AM 50.0 °F - 42.8 °F 76% 30.12 in 6.2 mi Variable 1.2 mph - N/A   Mostly Cloudy
8:00 AM 49 °F - 42 °F 70%  in 12 mi North 1.2 mph - -   Scattered Clouds
8:20 AM 53.6 °F - 42.8 °F 67% 30.12 in 6.2 mi Variable 1.2 mph - N/A   Mostly Cloudy
8:50 AM 55.4 °F - 44.6 °F 67% 30.12 in 6.2 mi Calm Calm - N/A   Mostly Cloudy
9:20 AM 55.4 °F - 44.6 °F 67% 30.12 in 6.2 mi Calm Calm - N/A   Mostly Cloudy
9:50 AM 57.2 °F - 44.6 °F 63% 30.12 in 6.2 mi Calm Calm - N/A   Mostly Cloudy
10:20 AM 59.0 °F - 42.8 °F 55% 30.12 in 6.2 mi Calm Calm - N/A   Mostly Cloudy
10:50 AM 60.8 °F - 44.6 °F 55% 30.12 in 6.2 mi Calm Calm - N/A   Mostly Cloudy
11:20 AM 62.6 °F - 44.6 °F 52% 30.12 in 6.2 mi Calm Calm - N/A   Mostly Cloudy
11:50 AM 62.6 °F - 44.6 °F 52% 30.12 in 6.2 mi WSW 3.5 mph - N/A   Mostly Cloudy
12:20 PM 62.6 °F - 44.6 °F 52% 30.12 in 6.2 mi WSW 4.6 mph - N/A   Mostly Cloudy
12:50 PM 62.6 °F - 46.4 °F 55% 30.12 in 6.2 mi West 6.9 mph - N/A   Mostly Cloudy
1:20 PM 64.4 °F - 48.2 °F 56% 30.12 in 6.2 mi West 4.6 mph - N/A   Mostly Cloudy
1:50 PM 64.4 °F - 48.2 °F 56% 30.12 in 6.2 mi Variable 2.3 mph - N/A   Mostly Cloudy
2:00 PM 65 °F - 48 °F 43%  in 12 mi West 1.2 mph - -   Partly Cloudy
2:20 PM 66.2 °F - 48.2 °F 52% 30.12 in 6.2 mi Calm Calm - N/A   Mostly Cloudy
2:50 PM 64.4 °F - 48.2 °F 56% 30.12 in 6.2 mi West 4.6 mph - N/A   Mostly Cloudy
3:20 PM 64.4 °F - 46.4 °F 52% 30.12 in 6.2 mi WSW 5.8 mph - N/A   Mostly Cloudy
3:50 PM 66.2 °F - 46.4 °F 49% 30.12 in 6.2 mi SW 4.6 mph - N/A   Mostly Cloudy
4:20 PM 62.6 °F - 46.4 °F 55% 30.12 in 6.2 mi Calm Calm - N/A   Mostly Cloudy
4:50 PM 60.8 °F - 46.4 °F 59% 30.12 in 6.2 mi Calm Calm - N/A   Scattered Clouds
5:20 PM 55.4 °F - 46.4 °F 72% 30.12 in 6.2 mi Calm Calm - N/A   Scattered Clouds
5:50 PM 53.6 °F - 44.6 °F 72% 30.15 in 6.2 mi NNE 2.3 mph - N/A   Scattered Clouds
6:20 PM 51.8 °F - 46.4 °F 82% 30.15 in 6.2 mi NE 3.5 mph - N/A   Scattered Clouds
6:50 PM 50.0 °F - 44.6 °F 82% 30.15 in 6.2 mi NE 3.5 mph - N/A   Scattered Clouds
7:20 PM 50.0 °F - 44.6 °F 82% 30.15 in 6.2 mi NE 4.6 mph - N/A   Scattered Clouds
7:50 PM 46.4 °F 44.3 °F 42.8 °F 87% 30.15 in 6.2 mi NNE 4.6 mph - N/A   Scattered Clouds
8:00 PM 47 °F - 43 °F 79%  in 12 mi NNE 4.6 mph - -   Partly Cloudy
8:20 PM 48.2 °F - 42.8 °F 82% 30.15 in 6.2 mi NNE 5.8 mph - N/A   Scattered Clouds
8:50 PM 46.4 °F 44.3 °F 42.8 °F 87% 30.15 in 6.2 mi NNE 4.6 mph - N/A   Scattered Clouds
9:20 PM 44.6 °F - 41.0 °F 87% 30.18 in 6.2 mi NNE 2.3 mph - N/A   Scattered Clouds
9:50 PM 44.6 °F 43.1 °F 41.0 °F 87% 30.18 in 6.2 mi NNE 3.5 mph - N/A   Scattered Clouds
10:20 PM 44.6 °F - 42.8 °F 93% 30.18 in 6.2 mi Calm Calm - N/A   Scattered Clouds
10:50 PM 42.8 °F 41.1 °F 41.0 °F 93% 30.18 in 6.2 mi NNE 3.5 mph - N/A   Partly Cloudy
11:20 PM 42.8 °F - 41.0 °F 93% 30.18 in 6.2 mi NNE 1.2 mph - N/A   Scattered Clouds
11:50 PM 42.8 °F - 41.0 °F 93% 30.18 in 6.2 mi NE 1.2 mph - N/A   Scattered Clouds